SCP
0 0 0 0 0 0 0 0 0 0 0 0 0 0 0 0 0 0 0 0 0 0 0 0 0 0 0 0 0 0 0 0 0 0 0 0 0 0
0 0 0 0 0 0 0 0 0 0 0 0 0 0 0 0 0 0 0 0 0 0 0 0 0 0 0 0 0 0 0 0 0 0 0 0 0 0
0 0 0 0 0 0 0 0 0 0 0 0 0 0 0 0 0 0 0 0 0 0 0 0 0 0 0 0 0 0 0 0 0 0 0 0 0 0
0 0 0 0 0 0 0 0 0 0 0 0 0 0 0 0 0 0 0 0 0 0 0 0 0 0 0 0 0 0 0 0 0 0 0 0 0 0
0 0 0 0 0 0 0 0 0 0 0 0 0 0 0 0 0 0 0 0 0 0 0 0 0 0 0 0 0 0 0 0 0 0 0 0 0 0
0 0 0 0 0 0 0 0 0 0 0 0 0 0 0 0 0 0 0 0 0 0 0 0 0 0 0 0 0 0 0 0 0 0 0 0 0 0
0 0 0 0 0 0 0 0 0 0 0 0 0 0 0 0 0 0 0 0 0 0 0 0 0 0 0 0 0 0 0 0 0 0 0 0 0 0
0 0 0 0 0 0 0 0 0 0 0 0 0 0 0 0 0 0 0 0 0 0 0 0 0 0 0 0 0 0 0 0 0 0 0 0 0 0
0 0 0 0 0 0 0 0 0 0 0 0 0 0 0 0 0 0 0 0 0 0 0 0 0 0 0 0 0 0 0 0 0 0 0 0 0 0
0 0 0 0 0 0 0 0 0 0 0 0 0 0 0 0 0 0 0 0 0 0 0 0 0 0 0 0 0 0 0 0 0 0 0 0 0 0
0 0 0 0 0 0 0 0 0 0 0 0 0 0 0 0 0 0 0 0 0 0 0 0 0 0 0 0 0 0 0 0 0 0 0 0 0 0
0 0 0 0 0 0 0 0 0 0 0 0 0 0 0 0 0 0 0 0 0 0 0 0 0 0 0 0 0 -0 0 0 0 0 0 0 0 0
0 0 0 0 0 0 0 0 0 0 0 0 0 0 0 0 0 0 0 0 0 0 0 0 0 0 0 0 0 0 0 0 0 0 0 0 0 0
0 0 0 0 0 0 0 0 0 0 0 0 0 0 0 0 0 0 0 0 0 0 0 0 0 0 0 0 0 0 0 0 0 0 0 0 0 0
0 0 0 0 0 0 0 0 0 0 0 0 0 0 0 0 0 0 0 0 0 0 0 0 0 0 0 0 0 0 0 0 0 0 0 0 0 0
0 0 0 0 0 0 0 0 0 0 0 0 0 0 0 0 0 0 0 0 0 0 0 0 0 0 0 0 0 0 0 0 0 0 0 0 0 0
0 0 0 0 0 0 0 0 0 0 0 0 0 0 0 0 0 0 0 0 0 0 0 0 0 0 0 0 0 0 0 0 0 0 0 0 0 0
0 0 0 0 0 0 0 0 0 0 0 0 0 0 0 0 0 0 0 0 0 0 0 0 0 0 0 0 0 0 0 0 0 0 0 0 0 0
0 0 0 0 0 0 0 0 0 0 0 0 0 0 0 0 0 0 0 0 0 0 0 0 0 0 0 0 0 0 0 0 0 0 0 0 0 0
0 0 0 0 0 0 0 0 0 0 0 0 0 0 0 0 0 0 0 0 0 0 0 0 0 0 0 0 0 0 0 0 0 0 0 0 0 0
0 0 0 0 0 0 0 0 0 0 0 0 0 0 0 0 0 0 0 0 0 0 0 0 0 0 0 0 0 0 0 0 0 0 0 0 0 0
0 0 0 0 0 0 0 0 0 0 0 0 0 0 0 0 0 0 0 0 0 0 0 0 0 0 0 0 0 0 0 0 0 0 0 0 0 0
0 0 0 0 0 0 0 0 0 0 0 0 0 0 0 0 0 0 0 0 0 0 0 0 0 0 0 0 0 0 0 0 0 0 0 0 0 0
Wind_Speed
5 6 4 4 4 5 5 5 4 3 3 3 1 2 3 4 5 5 6 10 13 13 13 13 13 12 12 11 10 10 9 8 8 7 6 4 1 6
5 6 5 4 4 4 4 4 5 4 4 3 1 2 4 6 7 6 8 13 13 14 15 15 14 14 13 13 12 12 11 11 12 12 12 12 13 12
6 6 7 6 4 4 4 4 4 5 5 3 1 3 5 8 7 6 6 6 8 14 15 15 15 14 14 13 13 12 12 12 13 13 13 14 14 15
7 7 7 5 6 5 4 4 4 5 4 4 3 3 4 9 9 8 5 7 7 13 15 16 16 15 14 14 13 13 12 12 13 13 14 14 15 16
7 8 8 7 7 5 5 4 4 4 4 4 3 3 4 8 10 9 8 7 8 11 14 15 15 16 15 14 15 14 13 13 13 13 14 14 15 17
6 8 8 8 8 7 5 5 4 4 4 5 5 6 6 8 9 9 8 6 7 7 9 10 14 15 15 16 16 16 14 13 14 14 14 14 15 16
6 6 8 10 11 8 5 5 5 4 5 5 7 6 8 9 9 7 10 9 7 5 7 5 6 6 7 11 15 15 14 14 14 14 14 15 15 15
6 6 6 8 10 10 9 8 8 7 7 6 5 9 9 9 8 9 10 10 6 3 5 5 4 5 3 4 8 12 12 13 13 12 13 13 13 14
5 5 6 6 8 6 6 5 4 6 8 7 9 10 10 11 11 10 8 6 6 7 5 5 3 3 2 4 8 10 11 12 12 12 11 12 12 12
5 6 7 7 8 8 6 4 3 4 5 6 8 8 10 10 9 10 10 9 8 5 4 4 2 2 2 2 3 6 8 10 11 11 11 11 11 11
5 5 7 9 12 12 8 7 6 5 9 12 13 14 15 15 12 9 9 10 9 5 2 4 3 3 2 1 1 1 3 5 7 10 11 12 12 10
3 3 6 9 14 14 9 9 9 7 8 11 11 12 11 11 11 8 9 10 9 5 3 4 4 4 2 0 0 0 1 1 2 5 9 12 12 5
2 1 0 4 10 13 11 8 10 10 8 9 8 7 5 5 5 5 6 9 9 5 6 5 4 3 4 3 1 1 1 0 1 1 3 8 9 6
4 2 3 5 4 6 7 10 14 12 8 7 7 6 5 4 4 5 6 6 5 7 10 8 6 5 5 4 2 1 1 1 1 1 1 3 4 5
4 6 7 7 4 1 5 13 14 8 8 8 7 5 4 4 5 5 6 7 6 5 6 5 7 6 5 5 4 3 2 0 1 1 2 3 4 3
5 7 8 7 3 1 2 8 6 7 9 8 6 5 4 4 5 6 7 6 6 4 5 4 7 9 5 4 5 4 3 3 2 1 2 1 2 4
6 4 3 3 2 1 2 3 4 6 7 6 7 6 5 5 4 4 4 4 5 5 3 4 5 6 6 6 5 4 3 2 2 1 2 2 0 3
7 5 5 5 4 3 4 4 4 5 7 8 8 7 7 6 4 3 3 5 6 5 4 4 5 6 5 6 3 5 3 3 2 2 2 3 1 3
5 5 5 6 5 4 4 4 4 5 7 9 9 8 7 6 5 5 4 4 5 4 3 3 4 5 5 3 2 0 5 3 3 2 2 3 3 4
3 5 5 6 6 5 5 4 5 6 7 8 8 8 7 7 6 5 5 5 4 4 3 2 3 4 6 6 5 3 4 5 4 3 2 2 2 3
4 4 4 5 5 5 5 5 6 7 8 8 8 8 7 7 6 6 6 7 5 4 4 4 4 5 4 5 3 1 3 5 7 5 4 2 2 2
4 4 3 4 5 5 5 6 7 7 8 7 6 7 6 7 8 8 7 7 4 4 4 3 3 4 3 4 4 4 3 3 5 8 8 9 6 5
4 3 3 4 5 5 6 7 8 7 7 6 7 6 7 6 6 7 8 7 6 5 4 4 3 2 3 3 4 3 3 3 3 3 5 11 15 14
Wind_Direction
220 227 233 242 236 231 225 220 232 262 278 275 283 88 106 101 105 101 108 115 116 116 116 114 112 109 104 98 93 87 82 80 75 68 62 54 352 240
214 222 232 238 239 234 226 220 217 226 243 253 235 135 130 113 104 100 107 110 107 109 109 107 105 101 96 91 86 82 80 79 76 73 71 69 69 71
217 218 228 229 232 235 228 218 216 216 236 233 187 139 123 123 112 103 105 102 104 104 105 104 102 98 95 93 89 86 84 83 81 79 77 76 76 78
221 216 225 227 229 232 227 222 218 211 213 210 178 149 133 136 123 115 106 101 99 103 105 105 104 101 99 98 95 90 86 84 81 79 79 80 82 83
230 219 219 216 228 230 226 226 224 218 205 190 167 140 132 135 124 112 106 103 100 105 102 101 103 103 102 100 97 92 87 85 81 78 77 78 81 83
254 233 220 210 216 218 220 221 219 217 196 178 161 151 142 135 128 128 120 113 108 104 98 101 103 101 102 102 101 98 93 90 86 82 79 77 76 77
274 253 232 216 208 204 204 208 207 202 182 171 162 151 148 148 142 137 131 119 98 104 108 99 94 87 88 99 102 103 99 95 92 88 86 83 81 79
274 266 239 207 198 199 205 205 202 191 177 166 160 158 153 147 137 140 137 133 120 137 114 101 95 94 81 86 110 109 105 103 101 99 96 93 90 87
260 253 229 202 179 175 176 162 168 175 172 160 158 154 151 150 142 138 136 124 122 150 126 100 85 88 78 96 110 111 110 109 109 109 110 107 102 98
247 242 225 195 185 172 157 137 115 105 128 133 138 136 139 138 136 137 132 113 109 123 110 107 102 85 64 53 91 106 109 110 111 114 121 127 121 114
246 242 224 198 187 171 153 141 122 103 94 106 114 119 125 130 134 130 133 137 140 138 126 113 125 99 75 65 5 102 109 109 105 106 122 141 138 122
242 245 226 201 181 170 158 153 145 137 125 114 112 118 128 139 147 148 150 150 143 140 166 124 140 129 112 261 197 83 45 19 80 95 117 142 151 130
199 172 64 178 179 176 166 166 157 142 129 125 123 123 128 147 168 170 163 158 153 151 159 134 144 143 134 150 192 193 177 151 80 80 139 154 165 161
168 138 83 87 117 178 173 155 145 134 128 127 128 134 140 147 151 156 159 157 155 156 158 146 141 158 134 128 161 169 157 156 147 163 165 159 158 164
157 140 105 82 67 110 179 156 149 140 138 139 140 141 137 134 120 108 104 106 88 98 145 151 143 142 139 141 150 144 138 185 169 162 143 151 162 147
145 136 116 103 92 3 164 166 159 154 149 144 139 129 114 111 120 123 122 116 99 67 49 95 145 141 131 126 132 142 151 169 195 187 134 116 150 164
145 135 130 118 124 155 166 173 150 142 137 133 138 133 125 118 115 111 113 108 116 124 97 57 65 87 110 128 130 139 143 165 194 171 107 83 57 191
144 155 159 156 167 182 181 170 152 149 148 146 148 146 144 140 130 114 110 122 127 126 123 123 112 90 60 29 83 137 139 162 178 161 134 128 200 240
153 165 168 169 175 178 177 168 160 157 153 154 155 154 149 142 133 128 123 122 125 124 126 127 121 117 123 137 317 120 149 159 157 161 173 169 197 227
172 169 173 174 175 173 172 169 155 152 155 154 154 153 151 146 142 141 141 139 136 127 122 126 140 141 152 164 175 210 187 160 161 179 203 214 250 276
175 169 175 175 173 168 170 164 155 156 157 153 154 156 155 148 151 158 161 158 141 137 153 181 192 151 115 102 111 205 241 211 179 173 175 176 238 289
173 171 172 179 171 166 164 156 150 152 153 149 154 158 159 155 157 164 170 170 166 156 160 157 125 115 116 138 167 198 233 244 230 211 197 182 175 196
169 178 180 188 181 167 160 155 151 152 153 150 153 157 155 150 150 157 164 164 156 149 138 140 142 139 148 152 165 190 217 225 215 220 245 232 221 227